ANA686 RJFF-RKSI

Flight info

Callsign ANA686
Flight time 1h 9m
Altitude 36000
Route DGC G339 BEETL Y208 INVOK Z91 PSN Y782 BITUX Z53 BASEM Y685 GUKDO GUKDO3C
Aircraft A321/M-SDE3FGHIRWY/LB1

Departure

Time 2026-05-05 01:46
Airport Fukuoka Airport (RJFF)

Arrival

Time 2026-05-05 02:55
Airport Incheon International Airport (RKSI)
Time Latitude Longitude Altitude Speed Heading
2026-05-05 01:34 33.58664 130.45367 31 ft 0 kts 33°
2026-05-05 01:35 33.58658 130.45363 31 ft 2 kts 33°
2026-05-05 01:35 33.58644 130.45352 30 ft 2 kts 33°
2026-05-05 01:35 33.58631 130.45341 30 ft 2 kts 34°
2026-05-05 01:35 33.58617 130.45330 32 ft 2 kts 34°
2026-05-05 01:36 33.58603 130.45318 32 ft 2 kts 34°
2026-05-05 01:36 33.58590 130.45308 31 ft 2 kts 22°
2026-05-05 01:36 33.58579 130.45304 34 ft 0 kts 319°
2026-05-05 01:39 33.58580 130.45303 31 ft 1 kts 319°
2026-05-05 01:39 33.58620 130.45278 34 ft 12 kts 332°
2026-05-05 01:39 33.58691 130.45229 35 ft 11 kts 330°
2026-05-05 01:40 33.58753 130.45187 34 ft 10 kts 330°
2026-05-05 01:40 33.58816 130.45143 32 ft 11 kts 330°
2026-05-05 01:40 33.58883 130.45097 31 ft 11 kts 330°
2026-05-05 01:40 33.58945 130.45054 30 ft 10 kts 330°
2026-05-05 01:41 33.59006 130.45013 29 ft 10 kts 330°
2026-05-05 01:41 33.59072 130.44968 28 ft 12 kts 330°
2026-05-05 01:41 33.59142 130.44920 25 ft 11 kts 330°
2026-05-05 01:41 33.59206 130.44876 25 ft 10 kts 330°
2026-05-05 01:42 33.59261 130.44839 25 ft 9 kts 330°
2026-05-05 01:42 33.59311 130.44804 24 ft 8 kts 330°
2026-05-05 01:42 33.59360 130.44771 26 ft 8 kts 330°
2026-05-05 01:42 33.59400 130.44744 24 ft 6 kts 330°
2026-05-05 01:43 33.59430 130.44724 25 ft 4 kts 330°
2026-05-05 01:43 33.59475 130.44693 30 ft 12 kts 330°
2026-05-05 01:43 33.59559 130.44636 26 ft 15 kts 330°
2026-05-05 01:43 33.59648 130.44575 28 ft 14 kts 330°
2026-05-05 01:44 33.59726 130.44518 27 ft 12 kts 319°
2026-05-05 01:44 33.59730 130.44438 27 ft 10 kts 244°
2026-05-05 01:44 33.59699 130.44372 26 ft 9 kts 229°
2026-05-05 01:44 33.59644 130.44356 29 ft 8 kts 166°
2026-05-05 01:45 33.59587 130.44393 28 ft 14 kts 149°
2026-05-05 01:45 33.59300 130.44588 26 ft 81 kts 150°
2026-05-05 01:45 33.58645 130.45036 36 ft 134 kts 150°
2026-05-05 01:45 33.57724 130.45674 182 ft 161 kts 148°
2026-05-05 01:46 33.56747 130.46310 797 ft 159 kts 152°
2026-05-05 01:46 33.55769 130.46943 1376 ft 160 kts 151°
2026-05-05 01:46 33.54790 130.47605 1919 ft 166 kts 151°
2026-05-05 01:46 33.53719 130.48330 2221 ft 188 kts 151°
2026-05-05 01:47 33.52515 130.49139 2472 ft 210 kts 151°
2026-05-05 01:47 33.51168 130.50039 2720 ft 235 kts 152°
2026-05-05 01:47 33.49677 130.51034 3236 ft 252 kts 151°
2026-05-05 01:47 33.48149 130.52052 4110 ft 257 kts 152°
2026-05-05 01:48 33.46581 130.53097 5003 ft 259 kts 152°
2026-05-05 01:48 33.44994 130.54152 5817 ft 263 kts 152°
2026-05-05 01:48 33.43350 130.55154 6580 ft 268 kts 162°
2026-05-05 01:48 33.41499 130.55394 7254 ft 272 kts 188°
2026-05-05 01:49 33.39736 130.54586 7945 ft 276 kts 216°
2026-05-05 01:49 33.38449 130.52883 8637 ft 280 kts 239°
2026-05-05 01:49 33.37475 130.50852 9386 ft 283 kts 240°
2026-05-05 01:49 33.36782 130.48648 10091 ft 287 kts 263°
2026-05-05 01:50 33.36984 130.46271 10740 ft 293 kts 289°
2026-05-05 01:50 33.38101 130.44160 10989 ft 316 kts 316°
2026-05-05 01:50 33.39984 130.42635 11144 ft 339 kts 328°
2026-05-05 01:50 33.42092 130.41189 11414 ft 356 kts 329°
2026-05-05 01:51 33.44309 130.39809 11966 ft 363 kts 336°
2026-05-05 01:51 33.46734 130.38923 12617 ft 367 kts 347°
2026-05-05 01:51 33.48421 130.38648 13021 ft 371 kts 355°
2026-05-05 01:51 33.51866 130.38671 13879 ft 377 kts 359°
2026-05-05 01:52 33.53645 130.38711 14277 ft 380 kts 359°
2026-05-05 01:52 33.57198 130.38777 15040 ft 384 kts 359°
2026-05-05 01:52 33.59880 130.38822 15605 ft 387 kts 359°
2026-05-05 01:52 33.61672 130.38854 15986 ft 389 kts 358°
2026-05-05 01:53 33.64384 130.38779 16533 ft 390 kts 351°
2026-05-05 01:53 33.67037 130.38118 17075 ft 390 kts 339°
2026-05-05 01:53 33.69529 130.36851 17612 ft 389 kts 328°
2026-05-05 01:53 33.71767 130.35043 18147 ft 388 kts 319°
2026-05-05 01:54 33.73886 130.33017 18654 ft 391 kts 318°
2026-05-05 01:54 33.76018 130.30983 19127 ft 393 kts 318°
2026-05-05 01:54 33.78168 130.28938 19602 ft 395 kts 318°
2026-05-05 01:54 33.80325 130.26891 20057 ft 397 kts 318°
2026-05-05 01:55 33.82499 130.24829 20534 ft 399 kts 318°
2026-05-05 01:55 33.84683 130.22754 21005 ft 401 kts 318°
2026-05-05 01:55 33.86872 130.20674 21470 ft 402 kts 317°
2026-05-05 01:55 33.89079 130.18578 21932 ft 404 kts 317°
2026-05-05 01:56 33.91289 130.16476 22390 ft 406 kts 317°
2026-05-05 01:56 33.93509 130.14359 22843 ft 408 kts 317°
2026-05-05 01:56 33.95740 130.12226 23287 ft 410 kts 317°
2026-05-05 01:56 33.97949 130.10108 23731 ft 412 kts 317°
2026-05-05 01:57 34.00201 130.07950 24105 ft 414 kts 317°
2026-05-05 01:57 34.02492 130.05754 24468 ft 416 kts 316°
2026-05-05 01:57 34.04762 130.03579 24826 ft 418 kts 316°
2026-05-05 01:57 34.07046 130.01389 25174 ft 420 kts 316°
2026-05-05 01:58 34.09308 129.99222 25516 ft 422 kts 316°
2026-05-05 01:58 34.11610 129.97015 25858 ft 424 kts 316°
2026-05-05 01:58 34.13921 129.94795 26198 ft 425 kts 316°
2026-05-05 01:58 34.16240 129.92565 26535 ft 427 kts 316°
2026-05-05 01:59 34.18570 129.90321 26869 ft 429 kts 316°
2026-05-05 01:59 34.20911 129.88068 27199 ft 431 kts 316°
2026-05-05 01:59 34.23259 129.85804 27515 ft 433 kts 316°
2026-05-05 01:59 34.25616 129.83529 27821 ft 435 kts 316°
2026-05-05 02:00 34.27987 129.81245 28127 ft 437 kts 316°
2026-05-05 02:00 34.30374 129.78963 28426 ft 438 kts 316°
2026-05-05 02:00 34.32770 129.76677 28728 ft 440 kts 316°
2026-05-05 02:00 34.35184 129.74374 29038 ft 442 kts 316°
2026-05-05 02:01 34.37602 129.72067 29333 ft 444 kts 316°
2026-05-05 02:01 34.40030 129.69746 29605 ft 445 kts 316°
2026-05-05 02:01 34.42458 129.67424 29993 ft 444 kts 316°
2026-05-05 02:01 34.44875 129.65108 30397 ft 443 kts 316°
2026-05-05 02:02 34.47283 129.62794 30751 ft 441 kts 316°
2026-05-05 02:02 34.49674 129.60494 31107 ft 440 kts 316°
2026-05-05 02:02 34.52044 129.58212 31455 ft 438 kts 315°
2026-05-05 02:02 34.54461 129.55888 31806 ft 438 kts 315°
2026-05-05 02:03 34.56810 129.53628 32143 ft 437 kts 315°
2026-05-05 02:03 34.59192 129.51337 32485 ft 436 kts 315°
2026-05-05 02:03 34.61559 129.49060 32835 ft 435 kts 315°
2026-05-05 02:03 34.63927 129.46777 33169 ft 434 kts 315°
2026-05-05 02:04 34.66286 129.44497 33512 ft 433 kts 314°
2026-05-05 02:04 34.68638 129.42219 33846 ft 432 kts 314°
2026-05-05 02:04 34.70990 129.39940 34175 ft 431 kts 314°
2026-05-05 02:04 34.73332 129.37674 34443 ft 431 kts 314°
2026-05-05 02:05 34.75677 129.35403 34701 ft 430 kts 314°
2026-05-05 02:05 34.78018 129.33134 34958 ft 430 kts 314°
2026-05-05 02:05 34.80351 129.30871 35227 ft 429 kts 314°
2026-05-05 02:05 34.82688 129.28607 35472 ft 429 kts 314°
2026-05-05 02:06 34.87399 129.24073 35771 ft 432 kts 315°
2026-05-05 02:06 34.88956 129.22576 35997 ft 430 kts 314°
2026-05-05 02:06 34.89884 129.21682 36067 ft 430 kts 314°
2026-05-05 02:07 34.94557 129.17149 36203 ft 425 kts 314°
2026-05-05 02:07 34.99176 129.12657 36198 ft 425 kts 314°
2026-05-05 02:08 35.03827 129.08139 36194 ft 425 kts 314°
2026-05-05 02:08 35.06152 129.05886 35440 ft 435 kts 315°
2026-05-05 02:08 35.08603 129.03523 33939 ft 458 kts 315°
2026-05-05 02:09 35.11068 129.01147 34002 ft 434 kts 316°
2026-05-05 02:09 35.13499 128.99142 34362 ft 428 kts 324°
2026-05-05 02:09 35.18948 128.95933 34568 ft 440 kts 328°
2026-05-05 02:10 35.21731 128.94334 34769 ft 441 kts 328°
2026-05-05 02:10 35.24504 128.92731 35017 ft 441 kts 328°
2026-05-05 02:10 35.30014 128.89498 34397 ft 439 kts 328°
2026-05-05 02:11 35.32763 128.87863 33665 ft 440 kts 328°
2026-05-05 02:11 35.35563 128.86194 32917 ft 442 kts 328°
2026-05-05 02:11 35.38292 128.84569 32205 ft 443 kts 329°
2026-05-05 02:11 35.41071 128.82914 31490 ft 444 kts 329°
2026-05-05 02:12 35.43884 128.81237 30869 ft 443 kts 329°
2026-05-05 02:12 35.49355 128.77985 29790 ft 436 kts 329°
2026-05-05 02:12 35.52109 128.76348 29173 ft 432 kts 329°
2026-05-05 02:13 35.54806 128.74741 28586 ft 429 kts 330°
2026-05-05 02:13 35.57447 128.73167 28211 ft 427 kts 330°
2026-05-05 02:13 35.60016 128.71635 28143 ft 427 kts 330°
2026-05-05 02:14 35.65407 128.68411 28163 ft 429 kts 330°
2026-05-05 02:14 35.70780 128.65196 28161 ft 429 kts 330°
2026-05-05 02:15 35.76156 128.61982 28163 ft 429 kts 330°
2026-05-05 02:15 35.81340 128.58408 28166 ft 424 kts 319°
2026-05-05 02:16 35.86175 128.54274 28173 ft 429 kts 331°
2026-05-05 02:16 35.91601 128.51184 28166 ft 430 kts 332°
2026-05-05 02:17 35.97013 128.48058 28161 ft 429 kts 331°
2026-05-05 02:17 36.02388 128.44855 28159 ft 429 kts 330°
2026-05-05 02:18 36.07754 128.41623 28153 ft 429 kts 330°
2026-05-05 02:18 36.13125 128.38398 28151 ft 429 kts 331°
2026-05-05 02:19 36.18502 128.35178 28144 ft 429 kts 331°
2026-05-05 02:19 36.23835 128.31969 28142 ft 429 kts 331°
2026-05-05 02:20 36.29237 128.28715 28141 ft 429 kts 331°
2026-05-05 02:20 36.34606 128.25481 28129 ft 428 kts 331°
2026-05-05 02:20 36.37272 128.23877 27617 ft 425 kts 332°
2026-05-05 02:21 36.39923 128.22283 27056 ft 421 kts 332°
2026-05-05 02:21 36.42551 128.20699 26507 ft 418 kts 332°
2026-05-05 02:21 36.45161 128.19124 25978 ft 416 kts 332°
2026-05-05 02:21 36.47752 128.17562 25450 ft 413 kts 332°
2026-05-05 02:22 36.50331 128.16006 24917 ft 410 kts 332°
2026-05-05 02:22 36.52888 128.14459 24394 ft 408 kts 333°
2026-05-05 02:22 36.55426 128.12920 23898 ft 405 kts 333°
2026-05-05 02:22 36.57952 128.11383 23343 ft 403 kts 333°
2026-05-05 02:23 36.60464 128.09853 22750 ft 400 kts 333°
2026-05-05 02:23 36.62955 128.08336 22159 ft 398 kts 333°
2026-05-05 02:23 36.65440 128.06824 21583 ft 396 kts 333°
2026-05-05 02:23 36.67910 128.05321 21012 ft 395 kts 333°
2026-05-05 02:24 36.70374 128.03822 20475 ft 393 kts 333°
2026-05-05 02:24 36.72825 128.02330 19958 ft 391 kts 333°
2026-05-05 02:24 36.75264 128.00843 19440 ft 390 kts 333°
2026-05-05 02:24 36.77685 127.99366 18968 ft 387 kts 334°
2026-05-05 02:25 36.80101 127.97892 18497 ft 385 kts 334°
2026-05-05 02:25 36.82441 127.96289 18156 ft 383 kts 326°
2026-05-05 02:25 36.84528 127.94231 18121 ft 383 kts 316°
2026-05-05 02:25 36.86323 127.91770 18129 ft 383 kts 306°
2026-05-05 02:26 36.87865 127.89068 18135 ft 383 kts 304°
2026-05-05 02:26 36.89398 127.86349 18132 ft 383 kts 304°
2026-05-05 02:26 36.90929 127.83629 18136 ft 383 kts 304°
2026-05-05 02:26 36.92460 127.80909 18134 ft 382 kts 304°
2026-05-05 02:27 36.93472 127.79112 18138 ft 383 kts 304°
2026-05-05 02:27 36.98662 127.69880 18137 ft 383 kts 304°
2026-05-05 02:28 37.00192 127.67159 18139 ft 383 kts 304°
2026-05-05 02:28 37.01633 127.64364 18134 ft 382 kts 294°
2026-05-05 02:28 37.02366 127.61200 18138 ft 379 kts 275°
2026-05-05 02:28 37.02530 127.57913 18138 ft 379 kts 271°
2026-05-05 02:29 37.02637 127.54620 18137 ft 379 kts 271°
2026-05-05 02:29 37.02737 127.51323 18137 ft 379 kts 271°
2026-05-05 02:29 37.02836 127.48025 18134 ft 379 kts 271°
2026-05-05 02:29 37.02934 127.44775 18129 ft 379 kts 271°
2026-05-05 02:30 37.03032 127.41478 18133 ft 379 kts 271°
2026-05-05 02:30 37.03128 127.38175 18140 ft 380 kts 271°
2026-05-05 02:30 37.03222 127.34873 18144 ft 380 kts 271°
2026-05-05 02:30 37.03317 127.31578 18145 ft 380 kts 271°
2026-05-05 02:31 37.03411 127.28235 17820 ft 377 kts 271°
2026-05-05 02:31 37.03508 127.25012 17327 ft 374 kts 271°
2026-05-05 02:31 37.03575 127.22823 17020 ft 373 kts 271°
2026-05-05 02:31 37.03710 127.18549 16425 ft 369 kts 271°
2026-05-05 02:32 37.03781 127.16388 16123 ft 367 kts 271°
2026-05-05 02:32 37.03888 127.13207 15678 ft 365 kts 271°
2026-05-05 02:32 37.04035 127.09027 15210 ft 362 kts 271°
2026-05-05 02:32 37.04111 127.06894 15141 ft 362 kts 271°
2026-05-05 02:33 37.04259 127.02710 15167 ft 364 kts 271°
2026-05-05 02:33 37.04334 127.00577 15165 ft 364 kts 271°
2026-05-05 02:33 37.04444 126.97413 15162 ft 364 kts 271°
2026-05-05 02:33 37.04554 126.94251 15161 ft 364 kts 271°
2026-05-05 02:34 37.04662 126.91086 15164 ft 364 kts 271°
2026-05-05 02:34 37.04768 126.87965 15160 ft 364 kts 271°
2026-05-05 02:34 37.04876 126.84761 15157 ft 364 kts 271°
2026-05-05 02:34 37.04980 126.81637 15153 ft 364 kts 271°
2026-05-05 02:35 37.05087 126.78429 15153 ft 364 kts 271°
2026-05-05 02:35 37.05190 126.75266 15148 ft 364 kts 271°
2026-05-05 02:35 37.05291 126.72098 15148 ft 364 kts 271°
2026-05-05 02:35 37.05391 126.68969 15146 ft 364 kts 271°
2026-05-05 02:36 37.05492 126.65763 15141 ft 364 kts 271°
2026-05-05 02:36 37.05590 126.62632 15142 ft 365 kts 271°
2026-05-05 02:36 37.05691 126.59458 15142 ft 365 kts 271°
2026-05-05 02:36 37.05790 126.56295 15138 ft 365 kts 271°
2026-05-05 02:37 37.05890 126.53120 15142 ft 365 kts 271°
2026-05-05 02:37 37.05990 126.49952 15015 ft 362 kts 271°
2026-05-05 02:37 37.06089 126.46815 14563 ft 360 kts 271°
2026-05-05 02:37 37.06194 126.43652 14111 ft 358 kts 271°
2026-05-05 02:38 37.06298 126.40590 13643 ft 355 kts 271°
2026-05-05 02:38 37.06404 126.37473 13178 ft 352 kts 271°
2026-05-05 02:38 37.06506 126.34458 12970 ft 351 kts 271°
2026-05-05 02:38 37.06608 126.31409 12989 ft 351 kts 271°
2026-05-05 02:39 37.06710 126.28356 12992 ft 351 kts 271°
2026-05-05 02:39 37.06905 126.25276 12766 ft 349 kts 281°
2026-05-05 02:39 37.07826 126.22486 12323 ft 348 kts 303°
2026-05-05 02:39 37.09508 126.20331 11885 ft 347 kts 325°
2026-05-05 02:40 37.11704 126.19125 11447 ft 346 kts 347°
2026-05-05 02:40 37.14091 126.18911 10992 ft 345 kts 360°
2026-05-05 02:40 37.16485 126.18968 10554 ft 343 kts
2026-05-05 02:40 37.18851 126.19053 10307 ft 334 kts
2026-05-05 02:41 37.21131 126.19142 10187 ft 322 kts
2026-05-05 02:41 37.22966 126.19217 10084 ft 313 kts
2026-05-05 02:41 37.25130 126.19308 9960 ft 302 kts
2026-05-05 02:41 37.27193 126.19399 9828 ft 291 kts
2026-05-05 02:42 37.29150 126.19487 9701 ft 280 kts
2026-05-05 02:42 37.31083 126.19578 9567 ft 269 kts
2026-05-05 02:42 37.32897 126.19667 9437 ft 259 kts
2026-05-05 02:42 37.34665 126.19758 9250 ft 251 kts
2026-05-05 02:43 37.36421 126.19850 9042 ft 247 kts
2026-05-05 02:43 37.38135 126.19822 8779 ft 245 kts 344°
2026-05-05 02:43 37.39615 126.18894 8445 ft 236 kts 312°
2026-05-05 02:43 37.40532 126.17223 8098 ft 232 kts 294°
2026-05-05 02:44 37.41211 126.15386 7771 ft 231 kts 291°
2026-05-05 02:44 37.41855 126.13540 7475 ft 230 kts 291°
2026-05-05 02:44 37.42489 126.11705 7185 ft 228 kts 291°
2026-05-05 02:44 37.43118 126.09885 7019 ft 226 kts 291°
2026-05-05 02:45 37.43745 126.08070 6994 ft 227 kts 291°
2026-05-05 02:45 37.44376 126.06249 6995 ft 227 kts 291°
2026-05-05 02:45 37.45157 126.04531 6795 ft 228 kts 313°
2026-05-05 02:45 37.46526 126.03528 6480 ft 233 kts 346°
2026-05-05 02:46 37.48140 126.03606 6132 ft 238 kts 19°
2026-05-05 02:46 37.49517 126.04746 5806 ft 238 kts 45°
2026-05-05 02:46 37.50628 126.06302 5379 ft 240 kts 50°
2026-05-05 02:46 37.51704 126.07913 4988 ft 241 kts 51°
2026-05-05 02:47 37.52782 126.09522 4620 ft 240 kts 51°
2026-05-05 02:47 37.53864 126.11118 4270 ft 239 kts 51°
2026-05-05 02:47 37.54942 126.12699 3922 ft 237 kts 51°
2026-05-05 02:47 37.56022 126.14273 3560 ft 237 kts 51°
2026-05-05 02:48 37.57102 126.15840 3206 ft 237 kts 51°
2026-05-05 02:48 37.58183 126.17404 2857 ft 236 kts 51°
2026-05-05 02:48 37.59262 126.18960 2538 ft 235 kts 51°
2026-05-05 02:48 37.60324 126.20484 2198 ft 234 kts 51°
2026-05-05 02:49 37.61395 126.22055 1832 ft 233 kts 56°
2026-05-05 02:49 37.61952 126.23887 1597 ft 220 kts 92°
2026-05-05 02:49 37.61760 126.25666 1593 ft 198 kts 108°
2026-05-05 02:49 37.61420 126.27328 1595 ft 190 kts 110°
2026-05-05 02:50 37.61073 126.28920 1621 ft 186 kts 113°
2026-05-05 02:50 37.60368 126.30092 1574 ft 157 kts 162°
2026-05-05 02:50 37.59353 126.30354 1641 ft 147 kts 171°
2026-05-05 02:50 37.58487 126.31053 1623 ft 151 kts 143°
2026-05-05 02:51 37.57645 126.31804 1615 ft 148 kts 152°
2026-05-05 02:51 37.56785 126.32532 1607 ft 150 kts 151°
2026-05-05 02:51 37.55924 126.33283 1611 ft 150 kts 150°
2026-05-05 02:51 37.55068 126.34040 1610 ft 150 kts 149°
2026-05-05 02:52 37.54219 126.34795 1609 ft 149 kts 150°
2026-05-05 02:52 37.53368 126.35552 1554 ft 150 kts 150°
2026-05-05 02:52 37.52514 126.36314 1432 ft 151 kts 149°
2026-05-05 02:52 37.51663 126.37073 1243 ft 150 kts 148°
2026-05-05 02:53 37.50810 126.37834 1041 ft 150 kts 147°
2026-05-05 02:53 37.49968 126.38584 837 ft 150 kts 147°
2026-05-05 02:53 37.49100 126.39358 628 ft 150 kts 147°
2026-05-05 02:53 37.48259 126.40104 443 ft 149 kts 146°
2026-05-05 02:54 37.47418 126.40852 230 ft 148 kts 147°
2026-05-05 02:54 37.46583 126.41599 58 ft 148 kts 147°
2026-05-05 02:54 37.45789 126.42302 30 ft 115 kts 144°
2026-05-05 02:54 37.45310 126.42735 30 ft 59 kts 144°
2026-05-05 02:55 37.45085 126.42933 31 ft 33 kts 144°
2026-05-05 02:55 37.44937 126.43092 30 ft 22 kts 127°
2026-05-05 02:55 37.44872 126.43232 30 ft 0 kts 116°
2026-05-05 02:56 37.44871 126.43235 30 ft 3 kts 116°
2026-05-05 02:56 37.44860 126.43264 31 ft 3 kts 114°
2026-05-05 02:56 37.44853 126.43282 31 ft 3 kts 114°
2026-05-05 02:56 37.44826 126.43358 32 ft 18 kts 114°
2026-05-05 02:57 37.44747 126.43497 32 ft 17 kts 136°
2026-05-05 02:57 37.44753 126.43613 32 ft 2 kts 54°
2026-05-05 02:59 37.44768 126.43639 32 ft 9 kts 54°
2026-05-05 02:59 37.44814 126.43721 32 ft 13 kts 54°
2026-05-05 03:00 37.44862 126.43807 33 ft 11 kts 55°
2026-05-05 03:00 37.44899 126.43883 33 ft 10 kts 70°
2026-05-05 03:00 37.44908 126.43963 31 ft 9 kts 71°
2026-05-05 03:00 37.44934 126.44028 33 ft 8 kts 54°
2026-05-05 03:01 37.44957 126.44069 33 ft 0 kts 54°
2026-05-05 03:01 37.44966 126.44085 32 ft 6 kts 54°
2026-05-05 03:01 37.45003 126.44149 33 ft 10 kts 53°
2026-05-05 03:01 37.45048 126.44229 32 ft 12 kts 54°
2026-05-05 03:02 37.45100 126.44320 32 ft 14 kts 54°
2026-05-05 03:02 37.45159 126.44424 32 ft 15 kts 54°
2026-05-05 03:02 37.45221 126.44544 32 ft 17 kts 69°
2026-05-05 03:02 37.45204 126.44692 31 ft 18 kts 138°
2026-05-05 03:03 37.45124 126.44815 32 ft 16 kts 126°
2026-05-05 03:03 37.45110 126.44922 31 ft 13 kts 62°
2026-05-05 03:03 37.45098 126.44995 32 ft 7 kts 95°
2026-05-05 03:03 37.45078 126.45040 32 ft 6 kts 141°
2026-05-05 03:04 37.45062 126.45053 32 ft 0 kts 148°